Regional Weather Roundup
Issued by NWS

Home | Current Version | Previous Version | Graphics & Text | Print | Product List | Glossary On
Versions: 1 2 3 4 5 6 7 8 9 10 11 12 13 14 15 16 17 18 19 20 21 22 23 24 25 26 27 28 29 30 31 32 33 34 35 36 37 38 39 40 41 42 43 44 45 46 47 48 49
000
ASUS45 KBOU 241207
RWRCO

WEATHER ROUNDUP FOR COLORADO
NATIONAL WEATHER SERVICE DENVER/BOULDER CO
600 AM MDT THU JUL 24 2014

NOTE: "FAIR" INDICATES FEW OR NO CLOUDS BELOW 12000 FEET WITH NO
SIGNIFICANT WEATHER AND/OR OBSTRUCTIONS TO VISIBILITY.

COZ001>005-013-030-031-241300-
...NORTHWEST COLORADO...

CITY           SKY/WX    TMP DP  RH WIND       PRES   REMARKS
CRAIG          MOCLDY    52  50  93 CALM      30.25S
HAYDEN         PTCLDY    61  41  48 SE8       30.28S
MEEKER         PTCLDY    58  42  55 NE6       30.28S
MOUNT WERNER   NOT AVBL
STEAMBOAT SPGS PTCLDY    59  43  56 CALM      30.31F
WALDEN         MOCLDY    54  37  54 E6        30.41S
$$

COZ006>008-011-241300-
...WEST CENTRAL VALLEYS...

CITY           SKY/WX    TMP DP  RH WIND       PRES   REMARKS
GRAND JUNCTION MOCLDY    81  48  31 SE17      30.17R
MONTROSE       LGT RAIN  67  55  65 S7        30.31R
EAGLE          MOCLDY    61  48  63 CALM      30.38R
RIFLE          PTCLDY    67  47  48 CALM      30.24R
DELTA          MOCLDY    74  55  49 NE10      30.26R
NUCLA          CLOUDY    73  46  38 E8        30.33S
$$

COZ017>023-064>068-241300-
...SOUTHWEST COLORADO...

CITY           SKY/WX    TMP DP  RH WIND       PRES   REMARKS
DURANGO        PTCLDY    58  50  75 CALM      30.40F
CORTEZ         CLEAR     66  51  58 SE5       30.30S
PAGOSA SPRINGS MOCLDY    57  54  89 CALM      30.49S
TELLURIDE      MOCLDY    63  39  42 SE8       30.53F
WOLF CREEK PAS NOT AVBL
$$

COZ009-010-012-014-032>034-037-058>063-241300-
...CENTRAL COLORADO...

CITY           SKY/WX    TMP DP  RH WIND       PRES   REMARKS
ASPEN          CLOUDY    68  43  40 S9        30.42F
BUENA VISTA    MOCLDY    53  44  73 CALM      30.46S
COPPER MTN     CLOUDY    55  36  47 S21G28    30.76S
BERTHOUD PASS  FAIR      46  32  57 W14       30.78F
COTTONWOOD PAS MOCLDY    63  39  42 NW7G17    30.59S
GUNNISON       MOCLDY    61  45  55 N6        30.48F
KREMMLING      MOCLDY    50  41  71 S3        30.41F
LEADVILLE      MOCLDY    49  45  86 CALM      30.59F
MONARCH PASS   MOCLDY    48  41  76 W28       30.85F
SALIDA         MOCLDY   N/A N/A N/A NW12      30.49S
SUNLIGHT       MOCLDY    54  43  66 CALM      30.65F
WILKERSON PASS MOCLDY    50  41  71 SW9G17    30.69S
$$

COZ069>075-241300-
...SAN LUIS VALLEY/SANGRE DE CRISTO MOUNTAINS...

CITY           SKY/WX    TMP DP  RH WIND       PRES   REMARKS
ALAMOSA        CLEAR     53  48  83 E6        30.45S
LA VETA PASS   CLEAR     54  45  71 SW15G25   30.60F
SAGUACHE       MOCLDY    55  45  67 NW6       30.49S
$$

COZ035-036-038>040-241300-
...NORTHERN COLORADO FRONT RANGE...

CITY           SKY/WX    TMP DP  RH WIND       PRES   REMARKS
DENVER INTL AP PTCLDY    67  48  50 CALM      30.14F
DMNS CITY PARK   N/A     65  52  62 SE5       30.13S
AURORA         PTCLDY    67  49  53 S12       30.17F
FRONT RANGE AP NOT AVBL
ERIE MUNI ARPT PTCLDY    59  52  76 SW3       30.11F
BOULDER MUN AP PTCLDY    64  46  52 CALM      30.13S
CENTENNIAL     PTCLDY    68  47  46 S10       30.18F
BROOMFIELD     PTCLDY    68  50  52 W5        30.16S
FORT COLLINS   MOCLDY    63  52  67 SE3       30.12F
LONGMONT       MOCLDY    62  52  70 CALM      30.13F
$$

COZ041-046-047-076>085-087-088-241300-
...PIKES PEAK/PALMER DIVIDE AND SOUTHERN FOOTHILLS...

CITY           SKY/WX    TMP DP  RH WIND       PRES   REMARKS
COLO. SPRINGS  PTCLDY    59  54  83 NE9       30.25F
A. F. ACADEMY  CLEAR     58  48  69 E3        30.27F
ELLICOTT       CLEAR     63  48  58 CALM      30.25S
FALCON         CLEAR     60  55  85 CALM      30.31F
FORT CARSON    CLEAR     64  51  60 N6        30.22F
LIMON          PTCLDY    56  55  97 SE5       30.19F
MONUMENT HILL  CLEAR     63  45  51 SW12      30.30S
TRINIDAD       CLEAR     69  49  48 SW15      30.26F
$$

COZ042>045-048>051-090-091-241300-
...NORTHEAST COLORADO...

CITY           SKY/WX    TMP DP  RH WIND       PRES   REMARKS
GREELEY ARPT   MOCLDY    57  50  77 NW5       30.10S
AKRON          PTCLDY    68  55  63 S10       30.10F
BURLINGTON     CLEAR     66  63  90 S10       30.12F
WRAY             N/A     69  67  93 SW8       30.06F
STERLING       PTCLDY    66  64  94 SW7       30.05S
HOLYOKE        CLEAR     68  64  88 S6        30.05F FOG
FORT MORGAN    PTCLDY    64  60  87 CALM      30.10S
$$

COZ086-089-092>099-241300-
...SOUTHEAST COLORADO...

CITY           SKY/WX    TMP DP  RH WIND       PRES   REMARKS
PUEBLO         CLEAR     63  54  72 E5        30.15F
LA JUNTA       CLEAR     72  51  47 SW13      30.13F
LAMAR          CLEAR     67  54  63 NW5       30.09F
SPRINGFIELD      N/A     64  54  69 SW8       30.18S
$$


USA.gov is the U.S. government's official web portal to all federal, state and local government web resources and services.